GW5755 Weather Reports


time (UTC)temp
C
wind
direction
speed
KPH
gust
KPH
rain 1hr
cm
rain 24hr
cm
rain mn
cm
humidity
%
barometer
mb
20260507153949 26 311 20.9 27.4 0.00 0.00 0.00 44 1009.8
20260507153446 26 331 16.1 22.5 0.00 0.00 0.00 44 1009.4
20260507152943 26 290 16.1 20.9 0.00 0.00 0.00 53 1009.8
20260507152439 27 284 17.7 20.9 0.00 0.00 0.00 48 1009.6
20260507151935 27 284 17.7 20.9 0.00 0.00 0.00 48 1009.7
20260507151431 27 277 16.1 17.7 0.00 0.00 0.00 45 1009.7
20260507150928 27 329 19.3 22.5 0.00 0.00 0.00 43 1009.6
20260507150425 27 329 19.3 22.5 0.00 0.00 0.00 43 1009.8
20260507145922 27 291 12.9 17.7 0.00 0.00 0.00 47 1009.7
20260507145417 27 291 12.9 17.7 0.00 0.00 0.00 47 1009.6
20260507144914 26 264 11.3 16.1 0.00 0.00 0.00 51 1009.6
20260507144412 26 270 19.3 22.5 0.00 0.00 0.00 51 1009.7
20260507143908 26 287 17.7 22.5 0.00 0.00 0.00 50 1009.8
20260507143406 27 294 17.7 20.9 0.00 0.00 0.00 49 1009.6
20260507142902 27 271 16.1 20.9 0.00 0.00 0.00 47 1009.8
20260507142358 27 289 16.1 17.7 0.00 0.00 0.00 46 1009.3
20260507141855 27 297 19.3 24.1 0.00 0.00 0.00 45 1009.6
20260507141352 27 315 16.1 24.1 0.00 0.00 0.00 45 1009.5
20260507140848 28 285 17.7 22.5 0.00 0.00 0.00 47 1009.7
20260507140345 28 325 24.1 27.4 0.00 0.00 0.00 43 1009.5
20260507135843 27 1 14.5 20.9 0.00 0.00 0.00 47 1009.6
20260507135339 28 289 20.9 25.7 0.00 0.00 0.00 46 1009.7
20260507134837 29 278 17.7 20.9 0.00 0.00 0.00 41 1009.7
20260507134333 30 277 14.5 24.1 0.00 0.00 0.00 40 1009.6
20260507133829 31 336 24.1 27.4 0.00 0.00 0.00 28 1009.6
20260507133324 31 346 24.1 27.4 0.00 0.00 0.00 24 1009.6
20260507132824 31 359 25.7 29.0 0.00 0.00 0.00 23 1009.5
20260507132319 31 325 22.5 24.1 0.00 0.00 0.00 23 1009.7
20260507131817 31 348 25.7 33.8 0.00 0.00 0.00 23 1009.7
20260507131313 31 342 22.5 29.0 0.00 0.00 0.00 24 1009.7
20260507130810 31 344 24.1 27.4 0.00 0.00 0.00 25 1009.7
20260507130308 31 335 25.7 35.4 0.00 0.00 0.00 25 1009.8
20260507125806 31 336 19.3 33.8 0.00 0.00 0.00 26 1009.8
20260507125306 31 341 24.1 29.0 0.00 0.00 0.00 25 1009.9
20260507124800 31 344 27.4 33.8 0.00 0.00 0.00 26 1010.0
20260507124257 31 346 30.6 38.6 0.00 0.00 0.00 26 1009.9
20260507123755 30 355 29.0 35.4 0.00 0.00 0.00 25 1010.1
20260507123252 31 345 35.4 41.8 0.00 0.00 0.00 25 1010.1
20260507122748 31 343 32.2 38.6 0.00 0.00 0.00 25 1010.1
20260507122243 31 350 29.0 35.4 0.00 0.00 0.00 25 1010.2
20260507121739 30 318 22.5 30.6 0.00 0.00 0.00 26 1010.2
20260507121236 30 345 29.0 35.4 0.00 0.00 0.00 27 1010.3
20260507120732 30 0 29.0 33.8 0.00 0.00 0.00 26 1010.3
20260507120229 30 0 33.8 37.0 0.00 0.00 0.00 26 1010.4
20260507115725 30 345 20.9 35.4 0.00 0.00 0.00 26 1010.4
20260507115221 30 314 25.7 30.6 0.00 0.00 0.00 26 1010.2
20260507114717 30 311 14.5 24.1 0.00 0.00 0.00 28 1010.5
20260507114215 30 326 22.5 29.0 0.00 0.00 0.00 28 1010.6
20260507113712 30 340 24.1 30.6 0.00 0.00 0.00 26 1010.6
20260507113209 29 329 19.3 24.1 0.00 0.00 0.00 28 1010.8
20260507112706 30 329 30.6 35.4 0.00 0.00 0.00 27 1010.7
20260507112203 30 348 24.1 38.6 0.00 0.00 0.00 27 1010.9
20260507111700 30 351 24.1 27.4 0.00 0.00 0.00 26 1010.7
20260507111157 29 334 27.4 35.4 0.00 0.00 0.00 28 1011.0
20260507110652 29 355 25.7 29.0 0.00 0.00 0.00 29 1011.0
20260507110149 30 337 27.4 33.8 0.00 0.00 0.00 29 1011.0
20260507105646 29 359 29.0 33.8 0.00 0.00 0.00 29 1011.0
20260507105142 29 339 29.0 38.6 0.00 0.00 0.00 29 1011.1
20260507104640 29 354 19.3 30.6 0.00 0.00 0.00 28 1011.0
20260507104136 29 331 24.1 37.0 0.00 0.00 0.00 28 1011.1
20260507103632 29 348 27.4 33.8 0.00 0.00 0.00 29 1011.3
20260507103129 29 334 32.2 35.4 0.00 0.00 0.00 29 1011.2
20260507102626 29 353 29.0 37.0 0.00 0.00 0.00 28 1011.3
20260507102122 29 341 27.4 38.6 0.00 0.00 0.00 29 1011.4
20260507101618 29 351 30.6 38.6 0.00 0.00 0.00 28 1011.3
20260507101114 29 344 33.8 38.6 0.00 0.00 0.00 29 1011.4
20260507100611 28 344 35.4 41.8 0.00 0.00 0.00 30 1011.4
20260507100110 28 352 33.8 40.2 0.00 0.00 0.00 31 1011.2
20260507095607 28 340 37.0 43.5 0.00 0.00 0.00 29 1011.5
20260507095103 28 349 40.2 46.7 0.00 0.00 0.00 31 1011.3
20260507094559 28 346 40.2 46.7 0.00 0.00 0.00 30 1011.5
20260507094057 28 351 43.5 48.3 0.00 0.00 0.00 32 1011.5
20260507093554 28 350 38.6 49.9 0.00 0.00 0.00 33 1011.5
20260507093053 28 341 38.6 43.5 0.00 0.00 0.00 33 1011.4
20260507092549 27 1 37.0 41.8 0.00 0.00 0.00 33 1011.5
20260507092046 27 345 40.2 43.5 0.00 0.00 0.00 32 1011.5
20260507091543 27 349 46.7 53.1 0.00 0.00 0.00 33 1011.4
20260507091039 27 348 45.1 51.5 0.00 0.00 0.00 34 1011.5
20260507090534 27 346 46.7 51.5 0.00 0.00 0.00 31 1012.0
20260507090031 27 325 41.8 49.9 0.00 0.00 0.00 34 1011.8
20260507085529 26 341 43.5 53.1 0.00 0.00 0.00 34 1011.7
20260507085025 26 356 41.8 51.5 0.00 0.00 0.00 34 1011.8
20260507084522 26 342 48.3 53.1 0.00 0.00 0.00 34 1012.2
20260507084019 26 340 43.5 49.9 0.00 0.00 0.00 35 1011.7
20260507083515 27 346 51.5 57.9 0.00 0.00 0.00 33 1011.7
20260507083012 26 340 48.3 53.1 0.00 0.00 0.00 35 1011.9
20260507082508 26 346 51.5 54.7 0.00 0.00 0.00 34 1012.0
20260507082004 26 349 49.9 62.8 0.00 0.00 0.00 34 1012.0
20260507081501 26 351 49.9 61.2 0.00 0.00 0.00 34 1012.3
20260507080958 26 345 48.3 56.3 0.00 0.00 0.00 34 1012.2
20260507080453 25 350 51.5 56.3 0.00 0.00 0.00 36 1012.3
20260507075949 26 332 48.3 56.3 0.00 0.00 0.00 36 1012.1
20260507075446 25 1 49.9 56.3 0.00 0.00 0.00 35 1012.4
20260507074942 25 338 46.7 53.1 0.00 0.00 0.00 37 1012.1
20260507074439 25 343 41.8 49.9 0.00 0.00 0.00 37 1012.3
20260507073937 25 337 49.9 57.9 0.00 0.00 0.00 38 1012.0
20260507073433 25 350 46.7 54.7 0.00 0.00 0.00 39 1012.3
20260507072930 25 332 53.1 57.9 0.00 0.00 0.00 38 1012.2
20260507072428 25 332 40.2 43.5 0.00 0.00 0.00 40 1012.5
20260507071925 25 22 37.0 46.7 0.00 0.00 0.00 41 1012.2
20260507071422 25 337 37.0 54.7 0.00 0.00 0.00 43 1012.5
20260507070918 25 9 46.7 51.5 0.00 0.00 0.00 44 1012.4
20260507070416 24 345 37.0 38.6 0.00 0.00 0.00 45 1012.4
20260507065912 24 347 45.1 48.3 0.00 0.00 0.00 46 1012.4
20260507065409 23 350 43.5 51.5 0.00 0.00 0.00 48 1012.4
20260507064906 23 355 48.3 53.1 0.00 0.00 0.00 46 1012.3
20260507064404 23 343 51.5 56.3 0.00 0.00 0.00 46 1012.2
20260507063902 23 343 51.5 56.3 0.00 0.00 0.00 46 1012.3
20260507063359 23 348 49.9 54.7 0.00 0.00 0.00 49 1012.0
20260507062856 23 338 51.5 57.9 0.00 0.00 0.00 50 1012.1
20260507062352 23 338 51.5 57.9 0.00 0.00 0.00 50 1012.0
20260507061850 23 348 54.7 56.3 0.00 0.00 0.00 49 1011.9
20260507061348 22 337 51.5 56.3 0.00 0.00 0.00 50 1012.0
20260507060846 22 335 49.9 54.7 0.00 0.00 0.00 51 1012.0
20260507060343 22 350 56.3 61.2 0.00 0.00 0.00 51 1012.0
20260507055840 22 349 46.7 61.2 0.00 0.00 0.00 52 1012.0
20260507055335 22 341 54.7 57.9 0.00 0.00 0.00 53 1011.9
20260507054832 22 337 56.3 64.4 0.00 0.00 0.00 52 1012.0
20260507054328 22 338 54.7 62.8 0.00 0.00 0.00 52 1012.0
20260507053825 22 3 51.5 62.8 0.00 0.00 0.00 54 1012.0
20260507053323 22 347 54.7 61.2 0.00 0.00 0.00 53 1012.1
20260507052822 22 345 51.5 57.9 0.00 0.00 0.00 53 1012.0
20260507052318 22 327 46.7 56.3 0.00 0.00 0.00 53 1011.9
20260507051816 21 343 53.1 56.3 0.00 0.00 0.00 55 1011.7
20260507051313 21 347 45.1 51.5 0.00 0.00 0.00 56 1012.0
20260507050809 21 346 57.9 67.6 0.00 0.00 0.00 55 1011.5
20260507050306 21 334 48.3 61.2 0.00 0.00 0.00 56 1011.8
20260507045803 21 343 51.5 56.3 0.00 0.00 0.00 56 1011.5
20260507045259 21 329 59.5 66.0 0.00 0.00 0.00 56 1011.5
20260507044757 21 344 53.1 61.2 0.00 0.00 0.00 56 1011.4
20260507044253 21 335 49.9 56.3 0.00 0.00 0.00 56 1011.2
20260507043749 21 344 46.7 57.9 0.00 0.00 0.00 57 1011.5
20260507043246 21 340 53.1 57.9 0.00 0.00 0.00 58 1011.5
20260507042742 21 342 51.5 66.0 0.00 0.00 0.00 57 1011.4
20260507042237 21 332 57.9 66.0 0.00 0.00 0.00 57 1011.2
20260507041735 21 343 46.7 61.2 0.00 0.00 0.00 57 1011.2
20260507041232 21 347 48.3 54.7 0.00 0.00 0.00 55 1011.1
20260507040729 21 329 43.5 54.7 0.00 0.00 0.00 57 1011.3
20260507040225 21 349 48.3 53.1 0.00 0.00 0.00 57 1010.8
20260507035721 20 345 54.7 62.8 0.00 0.00 0.00 57 1011.0
20260507035216 20 359 49.9 53.1 0.00 0.00 0.00 58 1011.0
20260507034714 20 349 38.6 54.7 0.00 0.00 0.00 59 1011.1
20260507034211 20 347 46.7 53.1 0.00 0.00 0.00 58 1011.0
20260507033709 20 329 41.8 48.3 0.00 0.00 0.00 60 1011.0
20260507033206 20 335 48.3 53.1 0.00 0.00 0.00 59 1011.0
20260507032704 20 341 43.5 51.5 0.00 0.00 0.00 60 1010.7
20260507032159 20 346 51.5 57.9 0.00 0.00 0.00 61 1010.6
20260507031656 20 343 54.7 64.4 0.00 0.00 0.00 61 1010.5
20260507031153 20 342 49.9 54.7 0.00 0.00 0.00 61 1010.5
20260507030650 20 349 54.7 61.2 0.00 0.00 0.00 60 1010.5
20260507030148 20 352 54.7 74.0 0.00 0.00 0.00 60 1010.5
20260507025644 20 12 51.5 66.0 0.00 0.00 0.00 60 1010.4
20260507025142 20 337 54.7 62.8 0.00 0.00 0.00 59 1010.4
20260507024640 20 347 61.2 67.6 0.00 0.00 0.00 59 1010.4
20260507024137 20 349 49.9 66.0 0.00 0.00 0.00 60 1010.2
20260507023632 20 352 64.4 69.2 0.00 0.00 0.00 60 1010.2
20260507023130 20 350 54.7 62.8 0.00 0.00 0.00 60 1010.3
20260507022626 20 346 49.9 56.3 0.00 0.00 0.00 60 1010.3
20260507022121 20 337 54.7 61.2 0.00 0.00 0.00 59 1010.1
20260507021618 20 343 51.5 57.9 0.00 0.00 0.00 59 1010.2
20260507021114 20 329 46.7 66.0 0.00 0.00 0.00 59 1010.1
20260507020613 20 356 53.1 64.4 0.00 0.00 0.00 57 1010.4
20260507020108 20 346 46.7 54.7 0.00 0.00 0.00 58 1010.1
20260507015607 20 353 51.5 61.2 0.00 0.00 0.00 58 1009.9
20260507015104 21 321 53.1 67.6 0.00 0.00 0.00 57 1010.3
20260507014601 21 327 46.7 54.7 0.00 0.00 0.00 58 1010.1
20260507014056 21 335 48.3 57.9 0.00 0.00 0.00 57 1010.4
20260507013553 21 345 54.7 57.9 0.00 0.00 0.00 57 1010.2
20260507013050 21 345 53.1 57.9 0.00 0.00 0.00 55 1010.1
20260507012548 21 331 49.9 62.8 0.00 0.00 0.00 56 1010.2
20260507012043 21 347 54.7 64.4 0.00 0.00 0.00 56 1010.2
20260507011542 21 338 46.7 54.7 0.00 0.00 0.00 56 1010.2
20260507011037 21 330 46.7 57.9 0.00 0.00 0.00 55 1010.0
20260507010532 21 340 54.7 61.2 0.00 0.00 0.00 55 1010.1
20260507010029 21 351 51.5 61.2 0.00 0.00 0.00 56 1010.0
20260507005526 21 339 49.9 62.8 0.00 0.00 0.00 53 1010.0
20260507005022 21 5 38.6 51.5 0.00 0.00 0.00 55 1010.2
20260507004519 21 344 45.1 53.1 0.00 0.00 0.00 54 1010.1
20260507004017 21 354 54.7 56.3 0.00 0.00 0.00 55 1010.1
20260507003512 21 339 46.7 51.5 0.00 0.00 0.00 55 1010.1
20260507003007 21 342 51.5 56.3 0.00 0.00 0.00 55 1010.2
20260507002504 21 321 53.1 54.7 0.00 0.00 0.00 54 1010.1
20260507002000 21 354 46.7 61.2 0.00 0.00 0.00 54 1010.0
20260507001457 21 347 45.1 51.5 0.00 0.00 0.00 54 1010.3
20260507000954 21 317 45.1 61.2 0.00 0.00 0.00 54 1010.1
20260507000450 21 350 45.1 53.1 0.00 0.00 0.00 54 1010.4
20260506235946 21 348 38.6 49.9 0.00 0.00 0.00 53 1010.4
20260506235444 21 325 45.1 53.1 0.00 0.00 0.00 53 1010.6
20260506234939 21 340 48.3 62.8 0.00 0.00 0.00 52 1010.7
20260506234437 21 339 45.1 62.8 0.00 0.00 0.00 51 1010.6
20260506233934 22 348 45.1 54.7 0.00 0.00 0.00 52 1010.7
20260506233431 22 340 48.3 54.7 0.00 0.00 0.00 51 1010.6
20260506232927 22 348 48.3 56.3 0.00 0.00 0.00 52 1010.9
20260506232423 22 325 48.3 57.9 0.00 0.00 0.00 52 1010.5
20260506231919 22 346 48.3 53.1 0.00 0.00 0.00 51 1010.8
20260506231417 22 315 46.7 57.9 0.00 0.00 0.00 51 1010.5
20260506230914 22 346 46.7 51.5 0.00 0.00 0.00 50 1010.7
20260506230411 22 340 38.6 43.5 0.00 0.00 0.00 50 1010.7
20260506225907 22 333 41.8 61.2 0.00 0.00 0.00 50 1011.1
20260506225404 22 346 35.4 51.5 0.00 0.00 0.00 49 1010.9
20260506224901 22 334 40.2 49.9 0.00 0.00 0.00 50 1011.0
20260506224359 22 346 56.3 62.8 0.00 0.00 0.00 49 1010.6
20260506223855 22 345 61.2 67.6 0.00 0.00 0.00 48 1010.6
20260506223350 22 355 48.3 51.5 0.00 0.00 0.00 49 1011.0
20260506222847 22 332 48.3 57.9 0.00 0.00 0.00 47 1011.0
20260506222343 22 345 49.9 54.7 0.00 0.00 0.00 47 1011.0
20260506221841 22 354 49.9 56.3 0.00 0.00 0.00 47 1010.9
20260506221338 23 341 53.1 56.3 0.00 0.00 0.00 48 1010.8
20260506220836 23 356 48.3 56.3 0.00 0.00 0.00 46 1011.1
20260506220331 23 340 51.5 57.9 0.00 0.00 0.00 46 1011.2
20260506215828 23 335 49.9 56.3 0.00 0.00 0.00 45 1011.0
20260506215324 23 352 48.3 61.2 0.00 0.00 0.00 45 1011.1
20260506214820 23 355 46.7 53.1 0.00 0.00 0.00 45 1011.3
20260506214317 23 345 49.9 54.7 0.00 0.00 0.00 45 1011.4
20260506213815 23 346 45.1 51.5 0.00 0.00 0.00 44 1011.1
20260506213312 23 342 38.6 54.7 0.00 0.00 0.00 43 1011.6
20260506212810 23 345 38.6 54.7 0.00 0.00 0.00 41 1011.2
20260506212306 23 354 46.7 53.1 0.00 0.00 0.00 41 1011.5
20260506211800 23 344 40.2 51.5 0.00 0.00 0.00 41 1011.3
20260506211257 23 340 48.3 53.1 0.00 0.00 0.00 42 1011.3
20260506210754 23 356 35.4 43.5 0.00 0.00 0.00 43 1011.3
20260506210250 23 342 45.1 48.3 0.00 0.00 0.00 43 1011.7
20260506205748 24 340 38.6 48.3 0.00 0.00 0.00 42 1011.4
20260506205243 24 352 38.6 43.5 0.00 0.00 0.00 42 1011.4
20260506204740 24 344 45.1 53.1 0.00 0.00 0.00 42 1011.6
20260506204238 24 342 41.8 53.1 0.00 0.00 0.00 42 1011.6
20260506203736 24 336 43.5 49.9 0.00 0.00 0.00 42 1011.7
20260506203232 24 333 41.8 49.9 0.00 0.00 0.00 43 1011.7
20260506202730 24 344 41.8 48.3 0.00 0.00 0.00 43 1011.8
20260506202226 24 336 48.3 54.7 0.00 0.00 0.00 42 1011.6
20260506201723 24 353 49.9 54.7 0.00 0.00 0.00 42 1011.7
20260506201221 24 336 40.2 48.3 0.00 0.00 0.00 43 1011.4
20260506200718 24 339 48.3 51.5 0.00 0.00 0.00 43 1011.3
20260506200214 25 337 45.1 53.1 0.00 0.00 0.00 44 1011.4
20260506195710 25 338 45.1 54.7 0.00 0.00 0.00 43 1011.4
20260506195207 25 344 43.5 56.3 0.00 0.00 0.00 42 1011.2
20260506194704 25 341 40.2 54.7 0.00 0.00 0.00 41 1011.1
20260506194200 25 352 49.9 54.7 0.00 0.00 0.00 40 1011.1
20260506193658 25 352 43.5 48.3 0.00 0.00 0.00 39 1011.0
20260506193155 25 353 41.8 48.3 0.00 0.00 0.00 38 1011.0
20260506192652 25 346 46.7 53.1 0.00 0.00 0.00 37 1011.1
20260506192148 25 341 43.5 51.5 0.00 0.00 0.00 38 1011.0
20260506191645 25 341 38.6 51.5 0.00 0.00 0.00 38 1011.0
20260506191141 25 347 41.8 49.9 0.00 0.00 0.00 38 1011.0
20260506190638 25 339 35.4 46.7 0.00 0.00 0.00 38 1010.9
20260506190135 25 347 37.0 43.5 0.00 0.00 0.00 36 1010.8
20260506185632 25 337 40.2 46.7 0.00 0.00 0.00 36 1010.5
20260506185128 25 350 38.6 46.7 0.00 0.00 0.00 36 1010.6
20260506184626 25 340 40.2 43.5 0.00 0.00 0.00 37 1010.7
20260506184123 25 342 37.0 41.8 0.00 0.00 0.00 38 1010.7
20260506183619 25 335 43.5 48.3 0.00 0.00 0.00 38 1010.6
20260506183115 25 343 35.4 43.5 0.00 0.00 0.00 38 1010.8
20260506182613 25 319 37.0 46.7 0.00 0.00 0.00 37 1010.5
20260506182110 25 346 30.6 43.5 0.00 0.00 0.00 37 1010.4
20260506181608 25 337 35.4 40.2 0.00 0.00 0.00 38 1010.7
20260506181105 25 339 33.8 40.2 0.00 0.00 0.00 38 1010.5
20260506180601 25 349 33.8 40.2 0.00 0.00 0.00 38 1010.6
20260506180058 25 340 27.4 33.8 0.00 0.00 0.00 39 1010.4
20260506175554 25 347 16.1 22.5 0.00 0.00 0.00 42 1010.6
20260506175050 25 339 22.5 30.6 0.00 0.00 0.00 40 1010.6
20260506174549 25 338 33.8 37.0 0.00 0.00 0.00 39 1010.5
20260506174045 25 325 14.5 16.1 0.00 0.00 0.00 39 1010.6
20260506173543 25 322 14.5 16.1 0.00 0.00 0.00 37 1010.7
20260506173039 25 338 19.3 27.4 0.00 0.00 0.00 35 1010.7
20260506172537 25 341 16.1 25.7 0.00 0.00 0.00 36 1010.6
20260506172033 25 281 8.0 12.9 0.00 0.00 0.00 35 1010.4
20260506171531 24 294 12.9 22.5 0.00 0.00 0.00 40 1010.7
20260506171028 24 320 14.5 17.7 0.00 0.00 0.00 48 1010.5
20260506170526 23 276 9.7 11.3 0.00 0.00 0.00 51 1010.7
20260506170023 23 292 8.0 11.3 0.00 0.00 0.00 54 1010.8
20260506165522 23 280 9.7 11.3 0.00 0.00 0.00 54 1010.7
20260506165017 23 284 11.3 12.9 0.00 0.00 0.00 55 1010.7
20260506164514 23 274 8.0 14.5 0.00 0.00 0.00 55 1010.7
20260506164012 24 268 8.0 11.3 0.00 0.00 0.00 56 1010.8
20260506163507 24 275 9.7 12.9 0.00 0.00 0.00 54 1010.7
20260506163002 24 269 11.3 11.3 0.00 0.00 0.00 52 1010.7
20260506162500 24 275 11.3 14.5 0.00 0.00 0.00 51 1010.8
20260506161956 24 279 8.0 12.9 0.00 0.00 0.00 49 1010.9
20260506161454 24 285 11.3 12.9 0.00 0.00 0.00 50 1010.7
20260506160952 25 289 9.7 14.5 0.00 0.00 0.00 49 1010.7
20260506160449 25 283 12.9 14.5 0.00 0.00 0.00 49 1010.6
20260506155946 25 331 9.7 14.5 0.00 0.00 0.00 49 1010.8
20260506155444 25 276 9.7 14.5 0.00 0.00 0.00 47 1010.5